ECMWFNIL_sfc_gust_000.txt.gz
Wind_Gust
0 0 0 0 0 0 0 0 0 0 0 0 0 0 0 0 0 0 0 0 0 0 0 0 0 0 0 0 0 0 0 0 0 0 0 0 0 0 0 0 0 0
0 0 0 0 0 0 0 0 0 0 0 0 0 0 0 0 0 0 0 0 0 0 0 0 0 0 0 0 0 0 0 0 0 0 0 0 0 0 0 0 0 0
0 0 0 0 0 0 0 0 0 0 0 0 0 0 0 0 0 0 0 0 0 0 0 0 0 0 0 0 0 0 0 0 0 0 0 0 0 0 0 0 0 0
0 0 0 0 0 0 0 0 0 0 0 0 0 0 0 0 0 0 0 0 0 0 0 0 0 0 0 0 0 0 0 0 0 0 0 0 0 0 0 0 0 0
0 0 0 0 0 0 0 0 0 0 0 0 0 0 0 0 0 0 0 0 0 0 0 0 0 0 0 0 0 0 0 0 0 0 0 0 0 0 0 0 0 0
0 0 0 0 0 0 0 0 0 0 0 0 0 0 0 0 0 0 0 0 0 0 0 0 0 0 0 0 0 0 0 0 0 0 0 0 0 0 0 0 0 0
0 0 0 0 0 0 0 0 0 0 0 0 0 0 0 0 0 0 0 0 0 0 0 0 0 0 0 0 0 0 0 0 0 0 0 0 0 0 0 0 0 0
0 0 0 0 0 0 0 0 0 0 0 0 0 0 0 0 0 0 0 0 0 0 0 0 0 0 0 0 0 0 0 0 0 0 0 0 0 0 0 0 0 0
0 0 0 0 0 0 0 0 0 0 0 0 0 0 0 0 0 0 0 0 0 0 0 0 0 0 0 0 0 0 0 0 0 0 0 0 0 0 0 0 0 0
0 0 0 0 0 0 0 0 0 0 0 0 0 0 0 0 0 0 0 0 0 0 0 0 0 0 0 0 0 0 0 0 0 0 0 0 0 0 0 0 0 0
0 0 0 0 0 0 0 0 0 0 0 0 0 0 0 0 0 0 0 0 0 0 0 0 0 0 0 0 0 0 0 0 0 0 0 0 0 0 0 0 0 0
0 0 0 0 0 0 0 0 0 0 0 0 0 0 0 0 0 0 0 0 0 0 0 0 0 0 0 0 0 0 0 0 0 0 0 0 0 0 0 0 0 0
0 0 0 0 0 0 0 0 0 0 0 0 0 0 0 0 0 0 0 0 0 0 0 0 0 0 0 0 0 0 0 0 0 0 0 0 0 0 0 0 0 0
0 0 0 0 0 0 0 0 0 0 0 0 0 0 0 0 0 0 0 0 0 0 0 0 0 0 0 0 0 0 0 0 0 0 0 0 0 0 0 0 0 0
0 0 0 0 0 0 0 0 0 0 0 0 0 0 0 0 0 0 0 0 0 0 0 0 0 0 0 0 0 0 0 0 0 0 0 0 0 0 0 0 0 0
0 0 0 0 0 0 0 0 0 0 0 0 0 0 0 0 0 0 0 0 0 0 0 0 0 0 0 0 0 0 0 0 0 0 0 0 0 0 0 0 0 0
0 0 0 0 0 0 0 0 0 0 0 0 0 0 0 0 0 0 0 0 0 0 0 0 0 0 0 0 0 0 0 0 0 0 0 0 0 0 0 0 0 0
0 0 0 0 0 0 0 0 0 0 0 0 0 0 0 0 0 0 0 0 0 0 0 0 0 0 0 0 0 0 0 0 0 0 0 0 0 0 0 0 0 0
0 0 0 0 0 0 0 0 0 0 0 0 0 0 0 0 0 0 0 0 0 0 0 0 0 0 0 0 0 0 0 0 0 0 0 0 0 0 0 0 0 0
0 0 0 0 0 0 0 0 0 0 0 0 0 0 0 0 0 0 0 0 0 0 0 0 0 0 0 0 0 0 0 0 0 0 0 0 0 0 0 0 0 0
0 0 0 0 0 0 0 0 0 0 0 0 0 0 0 0 0 0 0 0 0 0 0 0 0 0 0 0 0 0 0 0 0 0 0 0 0 0 0 0 0 0
0 0 0 0 0 0 0 0 0 0 0 0 0 0 0 0 0 0 0 0 0 0 0 0 0 0 0 0 0 0 0 0 0 0 0 0 0 0 0 0 0 0
0 0 0 0 0 0 0 0 0 0 0 0 0 0 0 0 0 0 0 0 0 0 0 0 0 0 0 0 0 0 0 0 0 0 0 0 0 0 0 0 0 0
0 0 0 0 0 0 0 0 0 0 0 0 0 0 0 0 0 0 0 0 0 0 0 0 0 0 0 0 0 0 0 0 0 0 0 0 0 0 0 0 0 0
0 0 0 0 0 0 0 0 0 0 0 0 0 0 0 0 0 0 0 0 0 0 0 0 0 0 0 0 0 0 0 0 0 0 0 0 0 0 0 0 0 0
0 0 0 0 0 0 0 0 0 0 0 0 0 0 0 0 0 0 0 0 0 0 0 0 0 0 0 0 0 0 0 0 0 0 0 0 0 0 0 0 0 0

ECMWFNIL_sfc_gust_003.txt.gz
Wind_Gust
14 13 12 12 11 10 10 10 9 10 11 11 12 12 12 12 11 12 13 14 15 17 19 19 20 20 21 22 22 24 24 24 25 23 23 23 24 28 31 29 30 32
14 12 12 11 11 10 10 9 10 11 11 12 13 13 12 12 13 14 14 15 16 18 19 20 21 21 21 22 21 23 25 25 25 24 24 23 23 26 30 29 29 30
14 13 12 11 10 9 10 10 11 12 12 12 11 13 14 13 14 15 15 16 17 19 20 20 20 22 22 22 22 23 24 24 27 26 27 26 25 26 26 28 27 30
15 14 13 12 11 11 11 12 12 12 12 13 13 12 13 14 14 15 17 17 19 21 22 22 22 22 23 24 23 24 24 26 26 25 27 27 27 26 26 26 27 31
16 15 13 12 12 12 12 12 13 13 13 13 14 15 16 16 17 19 19 19 20 21 22 23 23 23 22 23 23 24 24 25 25 26 27 26 29 29 27 26 26 29
15 16 14 14 13 13 14 14 13 14 13 13 15 18 18 19 19 20 20 21 21 23 23 24 24 24 24 23 23 23 24 25 25 25 27 28 28 30 29 26 27 29
15 14 13 13 13 14 14 14 14 14 15 17 19 20 20 21 22 22 22 22 23 24 24 24 24 26 24 22 23 24 25 25 25 28 29 30 29 29 30 30 30 30
15 14 14 14 13 14 15 15 16 16 17 19 20 21 21 23 24 24 23 23 24 25 25 25 25 26 26 25 25 24 25 24 24 26 28 30 29 30 30 33 33 31
15 14 14 13 14 14 15 17 16 17 17 19 21 22 22 24 24 24 25 25 26 26 26 26 27 26 26 26 27 26 27 25 25 26 27 28 30 32 33 32 32 34
15 14 14 14 14 15 15 15 17 18 20 21 22 23 25 24 24 25 26 26 27 28 28 28 28 27 27 27 29 29 28 28 28 28 28 27 28 30 32 34 33 34
15 14 14 14 14 15 15 17 17 19 21 23 23 24 23 24 25 24 25 27 30 29 29 29 29 29 29 29 29 29 30 29 29 30 30 30 30 30 26 33 34 34
14 13 13 13 14 15 15 16 18 19 19 21 23 25 25 24 25 25 25 28 29 29 29 30 30 30 31 31 30 29 30 31 31 31 32 32 31 30 31 31 33 34
14 13 13 13 14 14 15 17 19 19 22 24 24 24 25 26 26 26 25 26 28 30 31 31 31 31 32 31 31 32 32 32 33 33 32 33 31 32 32 33 33 34
13 12 13 14 14 15 17 18 20 21 22 23 24 26 26 26 27 26 27 27 29 29 30 31 31 32 32 33 33 33 33 33 33 32 33 32 31 32 33 34 35 34
13 13 13 14 15 16 17 19 21 22 23 24 24 25 27 26 27 27 28 29 30 31 31 31 32 33 32 33 33 33 33 33 33 33 32 32 32 34 34 35 34 35
14 13 14 15 15 16 17 19 21 22 23 24 25 26 26 27 26 27 27 29 31 32 31 32 33 33 29 23 22 31 31 32 32 33 32 32 33 33 34 34 35 34
14 14 14 14 14 17 18 20 22 22 23 24 25 25 27 26 27 28 28 28 29 31 32 33 34 35 24 21 22 23 27 34 33 31 29 31 32 33 34 34 33 35
13 13 14 14 15 18 19 20 21 22 23 24 26 26 27 27 28 29 29 29 31 31 32 35 35 24 23 23 22 23 21 30 36 36 34 33 33 34 34 33 33 34
13 14 14 15 18 19 19 20 22 23 24 24 26 26 26 28 29 30 31 31 32 33 34 35 35 25 23 24 24 24 23 24 36 37 36 36 35 35 35 34 32 33
13 13 15 17 17 18 20 22 23 23 22 23 26 27 28 29 29 31 31 31 33 33 35 35 36 26 23 22 21 23 23 24 31 38 39 38 37 37 35 35 35 33
13 14 17 16 17 19 21 23 24 24 23 23 26 27 29 30 30 30 31 31 31 33 34 35 37 24 22 22 22 23 23 23 30 36 40 41 39 37 38 38 36 38
13 14 15 17 18 20 22 23 23 23 24 25 26 28 29 28 28 29 31 32 33 34 35 37 37 25 24 24 26 26 25 27 32 37 40 41 42 38 37 38 38 39
14 14 15 17 20 22 23 23 23 23 24 26 28 29 29 29 30 30 31 32 33 34 35 38 38 29 25 25 24 25 24 32 35 37 38 40 41 37 38 38 38 39
14 16 17 18 20 22 23 22 22 24 25 26 29 30 30 31 31 33 32 32 32 34 36 37 38 32 26 25 25 24 24 33 36 36 37 37 37 36 37 37 38 34
15 16 17 18 20 20 21 22 23 23 26 28 29 29 30 31 31 32 32 32 33 34 29 38 41 36 29 28 29 29 30 32 38 37 37 36 36 36 34 37 38 34
14 15 15 17 19 20 21 22 22 23 25 28 29 29 31 31 32 33 34 35 35 35 37 36 38 38 35 26 25 26 29 33 35 37 38 35 35 37 35 34 36 37

ECMWFNIL_sfc_gust_006.txt.gz
Wind_Gust
13 12 12 11 10 9 9 8 6 6 6 5 7 7 8 6 7 7 8 9 9 10 11 11 12 12 14 14 13 16 17 17 17 15 17 17 16 14 15 16 18 21
12 11 12 11 10 9 7 7 6 6 6 6 7 7 7 8 7 8 9 10 11 12 12 12 12 14 14 16 13 15 18 17 19 18 17 16 17 18 17 14 18 22
13 12 11 11 10 9 9 8 7 7 7 7 7 7 9 8 9 9 9 10 13 14 13 12 12 14 14 15 16 18 19 18 18 18 19 20 18 17 17 15 14 16
14 13 12 11 9 10 10 9 9 8 8 9 9 9 9 8 9 10 11 13 14 14 13 15 15 14 15 16 15 19 19 21 20 17 19 20 20 19 18 17 15 16
15 15 14 12 11 10 10 10 10 10 9 8 7 8 10 10 11 12 12 13 12 14 14 14 13 13 14 16 17 19 19 22 20 19 23 23 21 20 19 18 18 17
16 16 15 14 13 12 12 11 11 11 10 10 10 10 11 12 12 12 13 14 14 15 15 15 15 14 14 16 17 19 21 21 21 21 22 22 23 23 23 20 19 20
17 16 14 14 13 13 12 11 11 10 10 10 11 12 13 12 12 14 14 14 17 17 17 16 16 15 14 15 19 20 22 20 21 23 24 24 23 21 23 24 23 22
17 14 15 13 13 12 12 12 12 12 11 12 13 13 12 13 16 14 15 16 16 18 18 18 18 19 18 17 21 21 20 17 21 22 22 23 23 23 23 25 21 24
16 15 14 13 13 13 13 13 12 12 12 13 14 14 15 15 14 15 16 17 18 18 18 18 19 19 19 20 20 22 23 22 21 22 23 24 25 25 24 25 24 24
16 15 14 14 13 12 12 12 12 12 13 14 15 14 16 13 15 16 17 17 19 20 19 20 22 22 24 23 24 23 23 24 24 25 24 24 25 26 25 26 25 24
15 15 14 13 13 12 12 12 12 13 12 14 14 15 15 15 15 14 16 20 20 21 23 23 23 24 24 25 23 21 25 26 25 25 26 26 26 27 23 27 26 25
16 14 14 13 13 13 12 12 12 12 12 12 14 15 15 16 15 17 18 20 21 23 23 25 25 25 25 25 26 24 23 24 25 26 26 27 27 27 27 27 26 26
17 15 14 13 12 12 11 11 11 11 12 13 12 14 16 17 17 19 18 21 22 24 24 23 24 24 27 24 25 27 29 29 29 27 27 28 26 29 28 28 29 27
16 14 13 12 11 10 10 10 10 10 11 11 12 15 16 18 19 19 20 21 23 23 23 21 22 25 27 28 28 28 27 29 30 28 29 28 28 29 29 29 29 29
12 12 11 11 11 11 11 10 10 9 11 12 14 16 15 18 19 21 23 24 24 23 23 21 21 22 24 28 29 27 27 29 29 29 30 31 30 30 30 30 30 30
14 12 11 11 11 11 11 8 8 10 11 13 15 16 18 18 20 21 22 23 24 26 24 20 20 19 17 19 18 26 27 29 25 25 26 28 28 29 30 31 31 31
14 13 13 13 12 10 8 11 13 12 13 15 14 15 16 17 17 22 23 23 24 24 25 22 22 22 17 17 16 17 18 20 27 33 30 31 27 26 29 31 31 30
14 13 13 12 11 11 11 11 10 12 14 15 15 15 14 14 16 22 23 24 24 25 24 24 23 16 18 19 19 18 15 20 22 25 28 30 32 33 34 31 32 33
14 13 12 11 10 11 10 9 10 12 15 15 17 14 12 15 20 22 25 25 24 28 27 25 27 19 19 19 17 17 18 18 20 23 27 27 32 36 34 34 33 34
12 12 11 10 11 11 10 10 12 14 13 14 14 12 12 14 18 21 22 21 22 26 28 27 29 18 19 19 19 19 18 15 19 22 25 28 34 33 33 35 33 33
12 11 11 11 11 9 9 12 13 13 15 15 13 12 12 16 23 24 20 19 21 22 25 26 25 19 21 21 22 24 25 22 23 22 24 26 27 29 32 33 36 36
10 9 10 11 11 11 12 13 13 13 13 12 10 13 16 18 19 20 21 22 22 22 22 24 24 18 19 19 20 20 22 26 24 24 26 28 29 30 31 34 31 36
9 10 10 11 12 13 14 13 13 12 11 11 13 14 16 18 20 21 23 23 23 23 25 24 23 19 19 20 19 20 20 24 22 25 29 31 33 32 33 38 34 37
10 10 11 11 12 13 12 11 11 12 13 9 12 13 15 18 24 24 23 24 25 27 25 24 24 21 22 22 24 24 22 26 22 25 29 30 33 30 31 32 35 31
8 9 10 10 11 12 10 11 11 12 12 11 13 13 15 17 22 27 27 29 28 27 20 28 30 24 21 21 22 23 26 24 23 26 30 30 31 31 28 29 30 27
8 9 9 10 10 10 11 11 11 12 12 12 11 15 18 22 24 26 28 30 29 27 25 25 30 31 24 23 24 25 27 33 27 28 31 30 29 34 32 29 29 30

ECMWFNIL_sfc_gust_009.txt.gz
Wind_Gust
10 8 11 9 8 9 10 9 8 9 8 6 6 4 5 4 3 3 3 2 1 1 2 3 4 5 6 5 5 6 6 8 11 10 11 11 12 12 14 12 9 10
10 10 8 7 7 6 9 9 7 9 8 6 6 5 3 3 2 5 4 2 2 3 4 5 5 3 3 4 5 7 8 7 10 11 13 12 12 12 14 12 12 12
10 9 10 9 10 7 9 8 7 7 7 6 4 4 3 4 1 1 3 2 2 3 3 4 5 5 5 4 5 5 6 6 7 8 11 11 11 12 13 13 13 13
11 12 12 10 9 9 8 9 7 6 5 3 4 5 4 3 2 1 1 3 4 6 7 6 7 6 6 6 5 4 5 5 6 6 10 12 13 13 15 14 15 16
13 12 10 10 8 9 9 10 8 7 6 6 4 4 4 2 1 2 4 5 4 4 4 5 4 5 5 5 5 6 6 7 5 6 8 10 11 13 14 15 16 17
10 10 10 10 8 9 10 9 8 7 7 5 7 5 4 3 3 4 5 5 5 3 3 4 5 5 5 5 5 5 6 7 7 5 7 10 12 13 16 16 16 17
13 11 11 10 8 8 9 8 7 7 7 6 5 5 5 4 5 7 7 6 5 5 5 6 6 6 5 4 4 5 5 5 6 7 9 10 10 14 14 16 17 17
13 11 11 10 9 8 9 8 7 7 6 5 5 6 5 6 6 6 6 6 6 6 6 6 6 6 6 4 5 5 6 7 9 10 10 11 12 14 14 16 16 17
13 12 11 10 10 9 8 8 7 6 6 6 5 5 5 6 7 7 7 6 6 6 5 5 5 5 4 3 4 5 6 7 7 8 10 13 15 16 16 15 17 18
14 12 12 11 11 10 9 8 7 6 6 6 6 6 6 6 5 6 5 6 5 5 5 5 4 4 4 4 5 6 7 9 10 12 13 14 16 18 17 16 15 18
13 13 13 11 11 9 10 8 7 7 6 6 6 5 5 4 4 3 4 4 5 5 5 5 5 5 6 6 6 6 10 12 12 13 13 15 16 17 16 19 19 19
14 13 13 12 10 9 9 9 8 7 6 6 5 5 4 4 3 4 5 6 5 5 5 6 6 6 6 7 8 10 13 14 15 15 15 15 15 15 16 16 17 17
15 14 13 12 11 10 9 7 7 7 6 6 5 4 3 2 3 4 5 3 4 5 6 6 6 6 7 7 9 11 13 13 13 13 14 15 15 17 17 17 17 17
14 12 12 12 11 10 9 8 7 7 6 5 4 3 2 3 4 5 6 4 5 5 6 6 7 9 9 10 11 13 14 14 16 17 16 16 14 15 16 18 18 19
12 11 11 11 11 10 9 8 8 7 6 6 4 3 3 4 4 3 4 4 4 4 5 6 8 9 8 9 11 12 12 13 14 15 16 17 16 16 16 17 18 19
13 11 12 10 10 10 9 8 8 7 7 6 5 5 6 7 6 6 3 1 2 3 4 5 7 8 11 13 11 14 14 16 16 17 18 19 21 22 21 20 20 19
14 12 12 11 10 9 8 8 9 8 7 6 6 6 6 5 5 4 1 2 2 3 4 5 7 10 12 12 13 13 11 12 15 17 17 19 19 20 22 22 22 23
14 13 12 10 10 9 9 9 8 7 7 5 4 3 4 4 2 2 2 2 3 2 4 6 7 7 11 12 13 12 11 14 14 16 17 18 19 21 22 22 22 22
13 13 11 11 11 10 9 10 8 6 6 4 4 6 5 4 1 1 2 3 3 5 6 7 8 9 12 13 13 14 16 17 17 17 18 19 19 21 23 24 23 23
13 12 11 10 10 10 9 8 7 7 6 5 5 4 2 2 1 2 3 4 5 6 7 8 11 10 14 15 16 18 19 18 19 20 20 20 20 21 21 23 24 25
12 11 9 8 8 8 7 6 6 5 3 5 6 5 3 2 1 3 3 4 5 6 8 10 11 11 13 15 15 15 15 13 15 17 20 21 21 21 22 23 24 26
13 10 9 7 7 6 6 5 4 6 7 4 4 4 2 3 3 2 5 6 6 7 9 12 12 12 13 12 12 11 13 12 12 16 19 21 23 22 23 24 24 25
11 10 8 7 6 5 5 5 5 2 3 4 5 4 5 5 4 4 5 7 8 8 10 12 11 11 13 14 15 16 13 14 15 18 19 20 23 22 24 25 26 25
11 9 7 6 5 4 2 3 5 4 3 4 8 6 5 2 2 3 4 5 7 10 12 16 16 15 17 17 17 15 13 16 16 18 21 22 24 24 25 27 27 28
11 9 7 7 6 6 7 4 4 4 4 8 8 5 2 2 3 5 5 6 7 12 13 19 18 15 15 15 16 15 16 15 17 20 23 23 25 28 25 27 27 23
9 10 7 7 7 7 5 3 3 4 7 7 5 6 2 1 2 4 6 8 9 12 14 15 18 17 16 17 17 17 17 21 19 22 25 26 26 29 31 27 27 28

ECMWFNIL_sfc_gust_015.txt.gz
Wind_Gust
14 12 13 13 13 12 12 11 9 9 9 7 9 7 8 6 2 2 4 5 6 7 5 3 2 3 2 2 2 2 2 2 2 2 4 4 3 2 2 2 2 3
15 14 13 12 11 9 10 12 12 12 11 9 9 7 5 4 3 4 5 5 4 4 2 2 2 3 5 5 5 4 4 2 4 1 2 2 2 1 1 1 1 2
13 12 13 14 16 14 13 10 10 11 10 10 6 6 7 5 7 4 5 5 4 2 2 3 2 2 2 3 4 5 5 5 5 2 2 1 1 2 2 1 2 2
14 16 17 15 14 14 12 11 8 8 6 8 8 8 8 7 7 6 5 6 5 2 2 2 2 3 2 2 2 3 3 4 4 2 3 2 2 1 2 2 3 3
16 15 13 13 12 11 11 12 12 11 10 10 6 6 8 8 7 6 6 4 4 1 1 2 2 2 3 5 2 3 4 4 5 3 2 3 4 3 3 2 2 3
12 13 13 13 13 13 13 13 13 12 10 8 11 9 8 7 7 6 5 4 1 1 1 1 2 4 3 5 4 4 5 6 6 3 3 4 5 4 4 3 3 4
15 13 13 12 12 12 14 13 12 12 13 12 9 10 9 8 7 6 5 4 2 2 2 3 4 6 5 4 3 5 5 4 5 4 5 6 5 6 4 4 5 6
16 14 15 13 13 13 13 13 12 13 12 10 12 10 10 10 8 6 5 5 3 3 4 4 4 5 5 5 5 6 6 5 5 5 6 7 6 7 7 7 6 7
16 15 15 15 16 14 14 14 13 11 11 14 12 10 8 11 10 9 7 6 3 3 2 2 2 3 3 2 3 3 5 6 5 5 6 8 8 9 9 7 7 8
16 15 14 16 16 15 15 13 13 12 11 12 12 11 12 8 9 9 7 7 6 3 2 2 2 2 2 2 3 3 4 5 6 6 6 8 9 10 9 9 9 9
15 15 16 17 17 15 15 14 13 13 12 12 12 11 10 10 6 6 7 7 8 6 5 5 4 3 2 2 2 2 3 4 5 5 6 8 9 10 9 10 9 8
17 14 17 18 17 16 16 16 15 13 13 11 13 12 9 9 10 7 9 8 6 6 6 6 5 5 5 4 3 2 3 3 4 5 6 7 8 9 9 9 10 10
19 20 21 18 16 15 14 14 14 13 13 12 10 11 11 8 7 8 6 9 7 7 6 6 5 5 4 3 3 3 4 3 5 5 6 6 6 7 8 8 9 10
21 20 17 16 13 13 14 14 13 12 12 10 10 10 10 10 11 10 8 7 9 8 6 6 5 4 2 2 3 4 4 5 6 7 8 7 7 8 8 8 8 9
13 7 7 12 13 15 15 13 13 12 11 11 10 9 10 10 9 10 9 6 5 6 6 5 6 3 2 3 4 5 5 6 7 8 9 10 9 9 9 10 9 10
6 9 10 11 17 17 15 14 12 12 11 11 10 10 9 9 8 6 8 9 8 6 6 5 2 2 3 6 6 5 6 8 9 9 9 10 11 11 11 10 11 11
12 12 17 24 20 18 12 10 11 12 11 10 10 9 10 8 8 7 6 7 9 7 5 3 1 2 5 7 9 11 9 8 9 10 9 11 11 12 13 12 11 11
17 17 17 22 24 24 23 16 13 11 11 10 10 9 7 6 7 7 8 8 8 7 5 2 2 4 7 8 10 12 11 12 9 9 10 9 10 11 12 11 12 12
16 17 18 18 18 18 17 16 15 12 11 11 11 9 7 8 8 10 8 7 9 7 4 2 1 5 7 9 11 12 13 12 9 10 11 11 11 12 12 12 12 14
20 21 21 18 16 15 14 14 14 13 11 10 11 9 9 9 9 10 8 7 7 6 4 3 5 7 10 10 11 12 14 13 10 12 13 14 14 14 14 14 14 15
18 17 15 14 16 18 19 17 16 15 14 14 15 14 13 13 12 9 7 7 6 6 5 5 7 10 11 11 11 14 15 14 12 13 14 14 14 13 15 15 15 17
20 19 21 22 22 20 20 19 15 16 15 13 11 10 9 10 6 8 8 7 7 6 5 6 9 10 10 10 13 14 17 15 12 14 15 15 16 14 15 15 15 15
21 24 24 22 23 20 17 16 15 13 13 13 14 13 13 11 11 8 9 8 6 5 6 7 7 9 9 12 14 17 15 14 13 15 14 15 16 14 16 15 15 14
17 20 22 18 18 21 18 15 13 13 13 12 16 13 11 11 10 7 6 6 6 7 6 4 6 9 11 13 15 16 16 17 15 15 16 16 17 15 15 16 14 20
15 17 19 19 19 19 21 19 16 16 12 11 12 12 12 10 8 9 5 3 5 5 5 4 6 8 11 14 16 17 18 15 15 16 18 17 17 18 14 16 17 17
15 21 22 20 20 17 16 18 14 14 12 11 10 10 10 9 7 6 6 6 4 1 3 3 6 9 11 15 16 17 17 18 14 16 19 19 18 19 20 16 16 17

ECMWFNIL_sfc_gust_021.txt.gz
Wind_Gust
13 13 14 14 14 13 13 14 13 14 14 13 14 14 15 13 14 14 13 13 14 15 14 14 14 13 13 13 12 13 14 13 12 12 12 12 12 11 12 12 11 11
14 13 12 12 11 11 11 12 13 14 14 14 13 12 11 12 13 14 14 14 14 14 15 14 14 13 13 13 12 12 13 12 12 10 12 11 11 11 11 10 10 9
14 14 14 14 14 14 13 12 12 13 13 13 11 11 11 11 13 12 15 15 15 14 14 14 14 13 12 12 12 12 12 11 11 9 9 10 9 10 10 9 9 8
15 15 15 15 13 13 13 12 12 12 11 11 13 13 12 11 12 14 14 14 15 15 14 13 13 13 12 12 11 11 11 10 10 9 9 9 8 9 9 8 8 7
15 16 15 14 13 12 11 13 14 14 14 14 12 12 13 13 14 15 15 15 15 15 14 14 12 12 12 11 10 11 10 11 10 9 9 9 8 7 7 7 8 8
14 14 14 15 14 14 14 15 15 15 14 12 13 13 14 15 15 16 17 17 16 16 15 14 13 12 11 11 10 10 10 9 10 9 9 8 8 8 8 7 7 8
14 13 14 15 14 14 15 14 14 13 14 13 13 14 14 15 16 17 19 19 18 18 17 16 15 13 12 11 11 11 10 10 10 9 8 8 7 7 7 7 9 10
16 15 16 16 15 16 16 16 15 15 13 14 15 16 16 17 19 17 18 19 19 19 18 17 16 15 14 13 13 13 12 10 10 9 9 8 6 8 8 8 9 11
17 18 18 18 17 17 17 17 15 14 15 16 17 16 16 18 19 19 20 20 19 19 18 17 17 16 14 14 14 14 14 12 10 9 8 8 7 7 9 9 10 10
18 16 14 16 17 17 17 15 13 13 15 17 17 16 19 16 17 20 20 20 20 19 19 18 18 16 16 15 15 14 13 13 12 11 10 9 8 7 8 8 10 11
17 16 16 16 16 15 16 16 16 15 14 17 16 17 17 17 16 17 20 21 21 21 19 19 18 18 17 16 14 13 12 12 11 10 9 8 7 7 6 10 11 12
16 16 17 17 17 17 18 16 14 15 16 17 19 18 18 19 20 20 21 22 21 20 19 19 18 18 17 16 16 14 13 12 10 9 8 7 7 9 10 11 12 14
17 17 17 16 17 18 17 16 17 16 16 16 14 14 17 16 17 20 19 20 19 18 18 19 19 17 17 16 16 15 14 13 11 9 7 7 8 10 11 12 13 14
18 17 15 15 16 16 16 17 15 12 13 12 14 17 22 22 21 18 14 16 17 18 18 18 18 17 17 16 15 15 14 12 10 9 7 7 8 10 10 12 13 14
15 16 16 16 14 13 14 13 10 11 13 16 21 22 16 12 9 13 15 14 16 16 17 18 17 17 16 17 16 15 13 12 11 10 8 7 8 9 10 11 13 14
14 14 16 16 15 13 13 12 13 16 20 21 21 17 17 19 23 18 17 19 18 16 17 15 16 14 11 12 8 14 13 11 10 9 8 8 9 11 12 13 14 15
13 13 14 16 15 13 14 17 19 19 18 16 15 17 17 18 21 23 19 16 16 17 16 15 14 14 15 13 11 9 11 11 9 8 7 9 10 12 15 16 16 17
14 14 13 15 14 15 17 18 18 19 19 17 16 18 18 16 16 16 17 16 15 16 15 14 14 12 16 13 12 11 6 11 9 7 7 9 11 14 16 17 18 18
15 15 15 14 15 16 16 17 19 20 19 17 20 21 17 18 20 18 16 16 17 18 16 14 14 14 14 14 12 11 7 5 8 6 8 10 12 15 16 18 18 19
15 15 16 15 14 15 17 18 19 21 19 18 17 16 17 17 18 18 18 18 17 18 17 16 16 13 13 12 11 11 9 4 7 7 9 11 13 15 16 17 18 19
16 15 16 15 14 15 18 20 20 19 19 17 18 19 20 21 23 21 19 19 19 18 18 16 13 12 12 12 10 9 8 5 7 7 9 11 13 14 16 17 18 19
17 17 16 15 15 16 19 21 21 20 20 18 17 16 12 11 11 14 17 17 17 19 19 16 14 12 12 11 10 8 7 7 7 8 9 11 14 14 16 17 17 18
18 19 19 18 16 18 21 21 21 19 16 15 17 18 19 19 18 16 17 18 17 17 18 17 16 11 11 10 8 7 5 6 7 8 10 12 14 15 16 17 17 18
19 19 19 19 18 20 22 22 22 19 16 16 19 19 17 13 12 13 13 14 16 15 18 18 17 11 9 7 7 6 3 7 9 11 12 14 15 15 16 18 18 18
19 20 20 20 20 21 21 22 22 20 13 13 12 11 13 15 17 18 15 11 10 11 9 15 14 10 7 6 5 5 7 9 11 13 15 16 18 19 17 19 19 15
18 19 20 20 21 21 21 21 15 15 15 15 14 14 14 12 13 15 15 11 10 12 11 11 11 10 10 6 5 5 5 11 12 14 17 19 19 20 21 19 21 22

ECMWFNIL_sfc_gust_024.txt.gz
Wind_Gust
17 17 16 17 18 16 16 16 15 15 16 15 15 16 16 15 17 16 14 14 13 13 14 13 13 12 12 12 10 11 13 12 12 12 12 11 12 11 12 12 10 9
17 16 16 15 16 16 16 15 15 15 16 15 15 15 15 15 17 16 16 15 15 14 14 14 13 13 12 12 11 11 13 12 12 12 12 11 12 12 11 10 10 8
17 16 17 17 17 15 16 16 15 16 16 16 14 14 15 15 17 16 16 16 16 15 15 14 14 13 12 12 12 11 12 12 11 11 10 11 9 10 10 9 10 8
18 18 18 18 17 16 15 16 16 16 15 15 16 15 16 16 17 17 16 16 16 16 15 14 14 14 13 13 11 11 12 11 12 11 11 11 10 10 9 8 8 8
17 18 17 17 17 17 16 17 18 17 17 17 16 17 17 18 19 19 18 18 17 17 17 16 15 14 14 13 12 12 12 12 11 11 11 10 10 9 8 8 8 7
16 19 19 19 18 18 19 18 18 18 18 17 18 19 18 19 20 20 20 20 19 19 18 17 17 16 15 14 13 12 12 13 13 12 12 11 11 10 10 8 8 9
18 18 18 18 17 17 18 17 17 17 18 17 18 19 19 21 21 22 22 21 21 20 20 19 18 17 16 15 14 13 13 11 13 13 13 12 11 12 11 9 8 8
19 18 19 19 17 17 18 18 17 18 17 17 17 19 20 22 23 22 22 22 21 21 20 19 19 18 17 16 16 15 14 13 13 13 12 11 10 11 11 10 9 9
19 19 19 18 19 19 18 19 17 16 17 18 18 18 20 21 22 22 22 22 22 21 21 20 19 18 17 16 16 17 17 15 14 14 13 13 13 12 11 10 9 9
19 18 18 18 18 19 18 18 18 17 17 17 20 16 19 20 21 23 23 23 23 23 22 21 21 19 18 18 18 17 17 17 16 15 14 13 12 12 12 11 10 10
17 19 20 19 19 20 19 18 18 18 17 19 18 19 19 21 21 22 23 25 25 24 23 23 22 21 20 19 17 16 16 16 15 15 14 13 12 11 6 11 10 10
17 19 20 21 22 23 22 22 23 19 22 18 19 20 18 18 20 20 20 22 23 23 24 24 24 23 22 21 20 18 16 16 15 14 14 14 13 12 11 10 10 11
16 15 14 16 19 20 19 21 20 20 22 22 20 19 19 20 21 22 21 23 24 24 24 25 24 23 22 20 19 19 18 18 17 15 14 13 12 12 11 10 11 11
12 12 13 14 14 16 16 17 18 18 18 18 18 20 22 24 24 25 24 25 27 25 23 22 22 22 21 20 19 19 19 18 18 16 15 14 12 11 11 11 11 11
14 13 12 12 13 14 15 16 17 16 15 17 20 21 22 24 25 27 28 29 27 25 25 24 24 22 23 24 20 20 19 18 17 16 14 13 12 12 11 11 12 12
13 13 14 14 14 13 13 14 15 15 17 19 20 21 20 21 24 25 26 25 25 27 23 19 17 19 14 14 10 18 18 17 15 14 14 13 11 11 11 12 13 14
13 13 14 15 14 14 14 15 14 15 17 18 18 19 20 21 24 27 26 26 28 26 23 19 19 14 16 13 10 8 13 14 14 13 12 11 11 11 12 13 15 15
15 14 15 15 15 16 16 16 16 16 17 17 17 18 19 19 23 25 26 25 26 27 24 22 18 14 17 16 13 10 6 14 13 13 12 11 11 11 13 14 15 16
17 17 16 15 15 15 14 15 16 17 18 18 18 18 17 20 21 23 24 26 26 25 24 22 18 17 18 17 14 12 7 6 13 11 10 10 10 12 13 15 15 17
17 17 16 16 15 15 15 16 17 18 17 17 17 18 19 19 20 21 22 24 25 24 23 20 21 17 19 17 15 12 6 4 11 11 9 10 12 12 13 14 15 17
17 17 17 16 16 16 16 17 17 17 18 19 19 20 21 21 21 22 23 23 23 22 21 20 21 19 19 18 16 12 8 5 11 11 11 11 12 12 14 14 16 17
17 17 17 17 17 17 18 18 18 18 19 18 19 20 21 20 20 21 22 22 21 20 19 21 20 19 19 18 15 12 11 13 13 12 12 13 13 14 14 16 16 16
19 19 18 18 18 18 18 18 18 19 19 19 21 22 21 21 21 21 21 21 20 19 20 21 19 17 18 17 14 13 11 13 11 13 13 13 14 14 15 16 16 16
20 20 20 19 19 19 19 18 18 18 19 19 22 22 22 22 20 20 19 19 18 19 23 23 19 16 18 15 13 13 8 10 11 12 12 14 15 14 15 16 16 8
21 21 21 20 21 20 19 18 18 19 18 20 21 21 19 18 19 20 18 16 16 20 19 24 21 16 15 15 12 11 10 9 10 13 14 15 16 17 16 17 18 13
21 21 22 22 23 21 20 20 18 18 19 19 17 18 16 17 17 19 20 17 17 20 20 20 21 17 16 13 11 9 6 9 11 13 15 16 17 18 19 19 19 20

ECMWFNIL_sfc_gust_027.txt.gz
Wind_Gust
17 17 17 17 17 15 16 15 13 14 13 12 12 13 14 13 14 12 10 10 9 10 10 10 9 8 8 7 6 7 10 8 9 9 9 9 10 9 10 10 9 9
17 17 17 17 17 16 16 15 14 14 14 12 12 12 13 13 15 14 12 12 12 11 11 11 10 9 9 9 7 6 9 8 8 9 8 8 9 9 9 8 8 8
17 17 17 16 17 15 14 15 15 14 14 14 12 12 13 14 15 15 14 13 13 12 12 12 11 11 9 9 9 8 9 9 8 9 7 8 6 7 7 6 8 7
18 17 17 17 15 15 16 16 16 16 15 16 15 15 15 15 16 16 15 15 14 14 13 12 12 12 11 11 10 10 9 9 9 9 8 9 8 7 6 6 7 8
17 18 17 17 17 16 16 17 18 17 16 16 16 16 17 18 18 18 18 18 16 15 15 14 13 13 12 12 11 10 10 11 10 11 10 9 8 7 7 7 7 7
17 20 18 18 17 18 20 19 19 19 18 16 17 18 18 20 20 19 19 19 18 18 16 16 16 14 15 13 12 11 12 12 12 12 11 11 10 10 10 8 8 9
18 18 17 18 19 19 20 19 17 17 18 18 18 18 18 20 21 21 21 21 20 20 20 19 18 17 16 15 14 12 13 11 13 13 13 12 11 10 9 9 9 8
15 18 18 21 20 21 20 21 18 17 16 17 17 18 19 21 22 21 21 22 22 22 21 21 21 20 18 17 16 14 13 12 12 13 13 12 11 12 12 10 7 10
17 17 17 17 19 22 22 22 20 16 17 17 18 18 19 20 21 21 23 23 23 23 23 22 22 21 19 18 17 17 17 15 14 14 14 12 13 12 14 13 11 10
18 18 19 19 17 20 17 19 21 20 19 19 19 19 21 21 21 23 23 23 23 24 24 23 23 21 21 20 20 19 18 18 17 16 15 15 14 14 13 12 11 10
14 16 16 18 20 21 19 18 19 19 19 21 21 23 24 22 23 23 23 24 24 24 24 23 22 22 21 20 19 18 19 18 18 18 17 16 15 14 8 11 11 11
13 15 15 16 19 16 14 16 18 20 23 20 20 23 23 23 23 24 24 25 25 25 24 24 23 22 22 22 21 20 20 20 19 19 18 17 16 15 14 14 12 11
12 15 14 14 15 17 18 19 22 23 24 24 23 24 22 22 23 23 22 25 27 26 25 24 24 23 22 22 22 23 23 22 21 19 18 17 15 16 14 13 12 12
10 8 9 12 15 19 19 17 18 20 21 21 21 22 22 22 22 22 22 24 25 26 27 24 24 23 24 24 23 22 21 19 19 18 17 16 14 15 14 13 12 12
9 8 8 10 11 12 13 15 18 21 21 17 19 20 19 21 21 22 23 24 24 24 24 25 26 26 26 26 24 22 21 19 19 19 17 17 16 15 14 13 12 12
12 12 13 12 12 13 13 13 13 14 16 17 19 20 21 21 22 22 23 24 25 25 24 24 25 25 15 14 14 21 20 19 17 17 17 16 15 14 13 12 12 11
12 12 12 14 14 14 13 15 16 14 15 16 17 18 20 20 19 21 23 23 25 23 18 17 19 22 11 14 12 10 15 16 16 16 15 13 13 12 11 12 12 13
13 14 14 14 14 15 15 16 15 16 16 17 18 17 18 18 19 21 23 23 22 21 18 23 29 10 15 13 11 9 8 16 16 15 15 13 12 12 12 11 11 11
14 15 15 15 15 15 14 15 16 17 17 17 18 17 17 18 20 21 21 22 21 20 25 25 20 16 15 15 14 12 11 12 17 15 15 14 13 13 12 10 10 12
15 15 15 15 15 16 16 17 17 18 16 17 17 17 18 19 20 21 21 22 23 22 23 22 15 16 18 17 16 14 12 9 14 14 12 12 12 12 11 12 12 13
16 16 16 16 16 16 16 17 17 16 17 17 18 18 19 20 20 20 20 20 20 22 22 21 18 17 19 18 17 15 11 5 11 12 10 11 12 12 13 13 14 15
15 15 16 17 17 17 17 18 17 17 17 17 18 19 19 19 19 19 20 20 21 19 20 16 19 17 18 18 16 14 10 10 12 12 12 12 13 12 13 14 15 15
16 17 17 17 18 18 18 18 17 18 17 17 18 19 20 20 19 20 19 19 18 18 15 20 21 14 16 16 16 13 9 12 12 13 13 13 13 13 14 15 15 16
17 18 18 18 18 19 18 17 17 17 17 17 19 19 20 20 19 19 18 16 16 15 21 21 21 15 15 15 14 13 4 9 13 12 12 11 11 13 15 15 14 5
19 19 19 19 19 19 18 18 18 18 18 17 19 19 19 20 20 19 14 11 12 18 15 22 22 16 14 13 11 8 4 5 6 8 8 10 13 13 13 14 16 11
19 19 19 19 20 19 19 19 18 18 18 18 18 20 20 18 18 17 14 14 17 19 18 19 20 16 14 12 9 7 8 10 4 5 9 10 11 14 14 15 16 19

ECMWFNIL_sfc_gust_030.txt.gz
Wind_Gust
13 12 12 11 9 11 10 9 8 9 8 7 9 10 10 7 10 6 6 7 5 6 6 5 5 4 5 3 4 6 8 5 6 5 7 6 6 5 7 7 5 5
13 11 13 11 10 9 11 8 7 9 8 6 6 9 9 9 10 8 7 7 6 7 7 6 4 5 4 6 3 4 7 5 5 7 5 6 6 7 4 4 5 5
12 11 11 11 10 9 10 9 6 6 8 7 5 8 10 9 11 9 8 7 8 7 7 6 6 5 4 5 5 4 7 5 5 5 3 5 4 5 5 3 4 2
11 11 10 9 9 8 7 9 6 5 6 8 6 6 8 10 11 11 8 10 8 9 8 8 8 8 8 7 4 4 7 6 7 5 4 5 3 4 4 4 4 4
11 10 9 7 6 5 6 8 8 7 6 6 7 6 7 10 11 11 11 11 10 10 11 10 10 9 8 8 7 5 7 6 7 5 6 5 4 5 4 4 4 2
10 12 10 8 5 4 5 6 8 7 9 8 7 8 7 10 12 12 13 13 12 12 12 12 12 10 9 8 7 6 8 8 9 7 9 7 8 7 8 5 4 4
8 8 8 7 8 8 4 4 7 6 7 9 9 9 10 10 12 14 15 14 15 14 15 14 12 11 10 9 9 8 9 8 11 11 10 10 8 8 6 6 6 4
5 5 6 6 7 9 10 13 8 8 8 10 8 10 11 12 14 13 13 14 15 16 15 15 15 14 12 11 12 11 11 10 11 11 10 10 9 11 9 8 5 4
5 7 6 7 9 8 8 11 10 11 9 7 10 12 11 12 10 12 14 15 16 15 15 14 14 14 11 11 11 12 14 11 10 11 10 8 10 10 12 12 9 7
9 6 3 5 7 7 11 12 13 13 14 13 13 10 16 12 11 13 15 16 16 16 17 14 15 13 13 13 15 14 13 14 13 11 12 11 12 13 13 12 12 9
12 11 11 11 11 12 9 9 10 8 10 16 17 19 19 15 15 16 17 15 16 18 16 15 14 14 15 15 13 11 13 12 12 13 11 12 10 10 7 8 10 8
7 8 8 8 8 12 18 19 17 12 9 8 13 14 14 14 16 17 18 18 19 19 17 18 17 15 17 17 16 14 12 12 12 12 12 12 11 10 11 7 7 8
6 5 6 5 5 5 9 15 15 14 15 14 16 14 13 15 19 16 15 22 20 19 19 17 17 17 15 13 15 14 13 14 12 12 11 10 10 11 9 9 8 8
7 10 11 10 10 12 14 13 11 13 19 18 8 8 7 8 12 14 14 15 21 20 21 20 16 18 17 15 15 13 11 12 13 11 12 10 8 9 8 8 8 7
3 4 5 8 15 17 16 15 17 17 14 12 13 11 7 8 9 8 9 11 15 20 24 13 13 16 18 17 12 11 10 12 13 14 12 11 11 11 9 8 8 6
5 4 6 5 6 6 9 15 17 14 12 14 14 13 13 11 10 11 12 12 14 16 15 9 12 16 13 20 14 12 16 16 12 11 13 11 10 10 9 9 8 7
7 7 6 8 6 6 5 8 10 9 15 17 13 12 13 13 12 14 16 16 16 14 16 12 13 18 17 14 12 15 13 8 9 9 10 11 9 9 9 9 7 8
7 8 9 9 9 9 8 9 7 7 9 7 13 13 13 13 15 16 17 16 17 18 15 15 14 12 12 7 8 7 6 7 8 10 10 10 8 9 9 8 8 7
8 9 9 9 9 10 9 9 8 9 9 8 8 8 9 10 12 12 12 14 13 14 14 12 12 14 16 13 11 9 5 6 9 7 9 8 8 8 8 8 7 6
9 9 10 10 9 9 9 11 10 11 8 7 7 9 8 9 11 12 10 12 13 13 13 10 10 12 16 15 15 13 11 8 9 8 7 7 9 8 7 5 4 5
9 9 9 9 9 10 9 11 11 9 10 9 10 8 10 11 10 11 11 12 12 14 13 13 8 16 16 16 16 16 14 9 10 10 7 4 5 4 4 4 4 5
11 9 9 9 10 9 11 12 10 9 9 9 9 10 10 11 10 10 10 9 11 11 14 6 10 10 14 15 16 15 14 11 12 12 9 6 5 4 5 6 7 6
11 11 11 11 11 12 12 11 10 10 9 9 11 11 11 11 12 11 11 11 9 12 6 13 10 6 10 13 14 14 12 10 10 9 7 3 5 5 7 7 7 7
12 13 12 12 11 13 12 10 10 10 12 9 12 12 12 12 11 13 11 11 10 7 16 13 13 9 11 13 13 13 8 10 7 7 4 5 6 5 4 6 8 8
14 13 14 13 14 13 11 11 11 11 11 11 11 12 12 13 13 14 12 16 16 17 14 18 15 11 11 14 15 13 11 7 7 6 3 3 5 5 4 4 5 6
13 13 13 14 15 12 11 11 11 11 11 11 11 13 14 14 8 15 17 15 14 16 15 16 17 13 14 16 15 15 13 14 11 11 8 6 4 5 5 6 6 9

ECMWFNIL_sfc_gust_033.txt.gz
Wind_Gust
12 12 15 13 12 13 13 13 12 12 12 13 13 12 13 10 9 8 7 4 7 7 6 5 4 3 3 5 6 7 7 5 6 6 7 8 7 6 6 6 6 6
10 12 13 13 10 10 11 12 12 12 12 13 13 13 11 12 9 9 7 6 6 6 5 5 4 4 3 4 6 8 6 6 5 5 7 6 5 5 5 5 5 5
9 11 13 12 12 10 11 9 11 12 11 12 13 13 12 13 12 8 10 9 8 6 6 5 3 2 2 3 6 7 6 6 6 4 5 5 4 4 2 3 5 5
8 10 10 10 10 11 10 9 9 11 8 12 12 12 13 12 12 10 9 10 9 7 6 5 5 4 3 5 4 6 6 5 6 4 5 4 4 5 4 4 3 6
8 9 9 9 8 10 9 8 9 10 9 10 11 11 12 12 11 9 10 8 8 8 7 7 5 5 3 5 5 5 6 6 5 5 6 5 4 7 5 5 2 2
3 6 7 9 8 12 12 10 9 10 8 9 11 13 13 13 12 10 10 9 8 10 8 7 6 5 3 4 5 4 7 6 6 6 5 5 4 5 5 6 3 2
3 4 5 6 7 9 10 9 7 9 9 7 5 8 13 12 12 12 10 10 9 8 9 9 8 6 6 4 5 2 5 6 6 7 5 6 7 5 4 6 6 4
6 4 5 5 5 6 8 7 7 8 8 8 7 6 8 12 13 11 11 11 10 10 8 10 9 9 8 6 7 4 4 4 6 7 6 5 6 6 4 7 6 5
7 6 7 6 7 9 4 4 4 6 6 7 7 7 6 8 9 9 11 11 12 11 9 8 11 11 10 9 8 8 6 6 6 7 7 4 6 8 6 4 5 4
10 9 14 13 7 4 6 7 8 3 2 5 5 3 5 6 10 14 17 20 21 18 14 9 10 12 13 13 12 11 10 10 7 8 8 6 7 7 7 7 6 4
6 5 6 5 5 7 5 7 8 7 7 5 4 3 2 3 11 15 11 11 13 10 10 11 10 14 20 18 13 11 12 12 10 10 9 8 6 8 8 8 8 8
5 5 6 5 6 5 5 5 5 4 4 3 3 5 3 3 9 9 12 11 12 11 8 7 10 13 15 19 16 12 11 11 12 12 11 10 7 7 8 8 10 9
4 6 7 6 6 6 5 5 5 5 4 5 5 4 4 6 5 6 9 12 13 11 11 8 10 13 15 18 17 13 12 13 12 12 12 12 9 9 9 8 10 8
12 10 8 7 6 5 6 6 6 5 6 5 3 3 2 4 4 6 6 7 8 8 6 9 10 10 10 11 15 15 14 13 12 13 14 13 11 10 8 9 10 7
7 6 6 7 7 6 6 6 5 6 5 5 4 6 6 6 5 5 7 6 5 5 6 5 8 12 14 14 12 8 4 9 14 15 14 13 11 11 10 11 9 9
3 5 7 7 6 7 8 7 8 7 6 6 7 7 7 5 5 6 7 8 7 6 7 8 10 10 9 13 10 6 7 8 7 9 11 12 13 12 11 12 11 10
2 2 1 1 2 5 7 11 10 8 7 9 9 7 8 8 9 9 9 9 9 8 9 10 12 12 12 12 13 10 8 10 12 11 9 12 13 14 13 12 11 12
2 4 5 3 3 3 4 3 4 5 9 10 8 5 8 8 10 11 11 10 10 10 10 12 12 11 15 15 16 15 13 14 12 11 11 9 11 12 12 12 12 12
4 3 1 2 2 2 4 5 6 7 6 3 4 9 7 8 10 9 10 10 10 11 12 13 12 12 16 16 16 15 15 13 11 12 13 14 10 11 11 12 11 10
2 2 3 2 3 6 6 6 5 5 4 5 7 8 5 4 4 7 7 8 10 11 11 10 10 10 14 15 15 12 10 11 9 9 10 13 13 13 13 11 10 10
1 1 1 1 2 2 3 4 5 5 6 7 6 5 6 8 7 7 6 6 8 7 8 4 5 11 16 17 13 9 10 9 11 10 11 10 9 9 9 9 9 10
4 3 2 1 1 1 1 2 3 3 5 6 4 4 6 5 8 7 7 8 6 7 3 4 2 5 5 6 10 11 11 10 9 10 11 8 9 8 9 9 10 9
3 2 2 1 2 2 2 3 4 5 7 4 3 4 5 5 6 8 7 7 8 4 8 4 5 6 9 11 11 13 11 10 10 11 10 10 9 8 8 7 6 5
4 3 3 2 1 1 2 3 3 2 4 3 3 4 5 6 7 6 10 9 8 8 5 10 6 7 12 13 13 12 10 12 10 12 10 10 8 6 8 7 4 7
4 4 4 4 5 5 4 4 4 4 4 2 3 3 5 5 6 10 9 11 9 10 11 12 9 6 11 13 14 13 12 10 11 10 10 8 9 9 9 10 10 13
4 5 6 6 6 6 6 7 6 3 3 2 4 3 4 8 8 10 11 8 8 9 11 10 12 7 8 14 13 14 12 12 9 13 11 9 8 9 8 6 9 10

ECMWFNIL_sfc_gust_036.txt.gz
Wind_Gust
12 10 12 11 11 11 12 11 11 14 12 12 13 12 13 10 8 7 6 6 6 6 5 5 5 6 6 6 6 7 7 6 5 5 6 6 6 6 8 6 6 7
12 11 9 10 9 8 10 10 12 14 13 13 13 13 9 11 9 9 8 8 6 7 5 5 4 6 6 6 6 8 5 6 5 4 6 5 3 6 7 6 5 4
10 11 11 11 13 11 13 10 11 11 13 13 11 12 12 10 10 6 8 9 8 7 6 5 3 4 5 5 5 5 6 5 5 3 5 3 2 6 4 4 4 4
11 15 14 12 12 14 13 12 10 11 9 9 10 13 14 12 11 10 9 9 9 7 6 5 5 3 5 5 5 5 5 5 3 4 3 2 2 2 2 5 5 4
13 13 13 12 12 12 12 12 12 11 12 14 10 9 11 10 11 11 12 10 10 9 8 8 5 5 3 6 5 6 2 3 3 5 6 2 1 3 2 4 4 3
12 13 10 10 13 12 11 12 12 12 12 9 14 12 13 12 12 12 13 13 11 13 12 10 10 8 7 6 5 6 6 4 4 5 3 2 2 1 2 4 4 2
9 9 12 12 11 10 11 10 10 11 12 15 12 14 14 14 13 13 13 13 14 14 15 14 12 11 9 9 7 6 6 6 5 5 5 3 2 2 1 2 4 2
3 2 7 9 9 7 7 6 6 9 8 7 12 13 13 15 14 13 13 14 14 13 12 12 12 11 10 10 11 9 8 7 9 8 7 6 4 5 3 3 3 4
9 8 10 10 10 11 9 7 5 5 3 7 9 10 7 10 10 9 9 9 8 9 8 9 10 11 10 10 11 11 10 8 9 9 9 7 8 8 7 6 4 3
11 7 7 9 9 7 6 8 9 6 3 2 4 7 9 6 9 9 9 9 9 7 8 7 7 6 8 8 9 9 8 8 8 9 10 9 10 9 8 7 8 6
4 6 8 9 10 9 6 6 9 7 3 7 9 9 10 11 9 8 8 8 11 10 8 8 9 8 9 10 8 8 8 9 9 10 11 11 11 11 10 11 9 10
11 6 8 11 11 12 11 10 10 9 8 9 10 12 10 11 12 10 12 11 9 8 9 10 9 11 11 10 7 6 8 8 9 11 12 12 11 11 12 11 11 10
3 4 5 5 3 6 6 4 3 5 6 11 9 6 9 8 7 7 4 6 7 8 8 11 12 11 11 10 10 11 9 9 10 10 12 12 10 11 10 11 12 11
5 11 6 4 7 6 6 6 10 15 14 8 5 7 8 9 10 9 9 8 8 8 7 8 9 9 10 10 10 8 9 10 10 10 9 8 9 10 9 11 12 11
11 8 4 4 6 10 10 10 11 11 9 8 5 5 5 4 3 4 6 7 7 8 9 9 9 10 9 9 11 11 9 11 11 12 11 11 11 10 10 10 10 11
9 6 6 5 6 8 9 7 6 4 2 3 3 2 3 4 4 4 4 6 6 6 7 8 10 9 10 13 10 10 10 12 11 11 11 11 12 11 9 11 13 12
6 6 5 6 8 5 4 4 5 3 2 3 3 3 4 3 3 4 6 6 7 8 8 9 10 10 12 13 14 13 11 11 10 10 8 10 11 13 13 12 10 11
3 4 3 2 4 4 4 4 3 3 4 3 2 3 3 3 5 7 6 6 6 5 7 9 10 9 13 14 15 15 13 13 9 8 8 10 10 10 11 12 13 13
3 5 4 4 3 4 4 5 4 4 2 2 1 3 2 3 6 4 6 5 5 6 8 9 10 10 13 15 15 15 14 10 7 8 8 7 8 10 11 12 12 12
2 2 2 2 1 4 6 6 6 5 3 4 4 2 2 2 3 4 5 6 8 9 10 10 10 12 13 14 14 13 11 10 9 8 8 11 13 14 13 11 10 12
3 3 2 1 1 2 4 3 3 3 6 6 6 4 3 4 5 4 5 4 4 5 7 9 13 11 14 14 10 7 11 11 9 7 8 8 7 7 9 11 10 10
4 3 1 2 2 2 2 1 2 2 3 4 3 4 4 3 5 5 5 3 2 2 4 5 5 11 10 8 8 11 11 9 6 7 8 8 7 7 7 8 9 11
2 3 3 2 1 1 1 2 3 4 5 2 2 3 3 5 4 4 4 5 5 5 2 1 4 9 9 4 9 13 10 8 8 8 8 9 8 8 10 9 8 8
2 3 3 2 3 3 2 3 3 3 5 4 2 2 4 3 3 6 7 6 5 5 2 3 4 8 7 3 7 12 11 12 10 12 10 10 10 9 10 11 13 17
3 4 4 4 4 5 3 5 6 7 6 3 4 4 3 5 6 8 7 8 6 4 8 7 5 7 7 6 6 8 10 9 13 13 12 9 11 11 11 11 12 14
6 6 6 6 6 7 6 6 6 6 6 4 3 3 8 8 8 8 8 7 6 6 7 6 6 6 7 10 10 11 10 11 9 13 12 10 9 11 12 11 11 11

ECMWFNIL_sfc_gust_042.txt.gz
Wind_Gust
12 11 12 11 9 9 11 9 6 7 5 4 8 6 7 2 3 4 3 4 4 5 4 3 2 4 4 6 7 9 9 9 8 7 9 10 8 8 10 8 7 9
12 10 8 7 7 6 7 8 9 8 6 4 3 4 3 1 2 4 4 4 5 5 4 2 1 2 3 5 6 9 8 9 9 6 11 10 8 9 8 7 7 5
11 9 10 11 12 9 9 7 9 8 7 6 2 2 2 1 3 3 4 3 4 4 3 2 1 1 2 3 4 5 8 8 9 7 10 10 9 10 8 8 8 8
10 13 13 12 11 11 9 9 7 8 6 6 6 3 3 2 3 2 2 3 3 1 2 2 2 1 3 3 3 4 4 6 7 9 9 7 8 10 9 9 9 7
14 12 10 10 8 8 9 8 8 8 9 7 6 5 5 3 4 2 1 2 2 3 1 1 2 2 2 3 3 3 2 3 5 5 8 8 7 9 7 9 8 8
6 11 11 11 10 11 11 9 8 8 7 6 7 5 5 4 4 4 4 5 4 2 2 2 1 3 2 2 3 3 2 1 2 3 3 4 4 4 7 7 8 8
10 8 8 7 7 6 8 8 6 5 5 3 7 7 5 4 5 5 5 4 2 2 2 3 2 1 2 3 2 2 1 1 1 1 2 1 4 2 2 5 7 7
8 5 6 6 8 7 7 7 4 4 3 4 9 6 6 3 4 6 6 6 6 7 5 3 4 7 9 8 5 3 3 1 4 3 2 2 2 4 3 3 6 7
6 6 7 7 7 7 6 7 7 7 6 7 6 7 6 8 9 11 9 6 6 7 7 7 11 13 11 9 9 9 8 6 5 5 5 5 4 5 5 3 4 5
8 8 10 9 9 9 10 9 11 10 8 8 8 7 7 8 8 9 7 5 3 2 4 5 9 12 12 10 9 7 10 9 6 6 7 7 7 7 7 7 6 5
7 8 9 8 10 10 10 10 9 9 8 10 9 8 6 5 7 8 8 5 4 3 4 6 5 7 8 11 7 9 10 10 9 8 9 9 9 8 7 8 8 9
9 8 10 11 12 11 10 9 9 8 8 7 10 12 8 5 5 10 8 10 8 7 6 5 5 6 8 9 10 10 10 10 11 9 9 9 9 9 9 10 10 11
8 7 9 11 12 12 10 9 8 7 7 8 8 11 13 15 9 7 5 7 11 9 10 9 9 9 7 7 8 11 14 12 11 10 9 9 9 9 9 9 10 10
5 7 6 8 10 13 11 9 7 7 6 7 8 7 5 8 9 10 12 9 10 8 5 4 4 7 7 8 11 12 13 12 11 9 10 9 8 9 9 10 10 9
5 4 6 7 10 8 6 6 8 6 8 9 11 7 8 9 9 7 8 8 7 7 6 5 6 8 8 8 9 10 9 11 10 11 11 9 9 9 8 9 9 10
6 7 8 8 9 9 9 8 6 3 4 5 5 4 5 5 3 4 4 6 7 6 5 5 7 7 8 10 9 10 9 9 9 10 8 8 8 9 9 10 11 10
6 5 7 8 9 10 9 8 5 4 3 1 2 1 1 1 2 4 5 5 6 5 5 5 7 8 9 10 10 9 7 8 8 8 7 8 8 10 11 11 10 10
7 6 4 4 7 8 8 7 6 6 5 5 5 4 3 4 5 6 5 5 5 4 5 7 7 6 8 9 9 8 5 8 7 8 8 8 9 9 10 10 10 9
7 9 8 8 6 6 6 6 7 6 5 5 7 6 6 6 6 4 5 5 6 6 8 8 6 6 8 8 9 9 6 6 8 8 8 10 9 8 8 9 9 8
7 9 9 7 6 7 7 10 10 9 7 6 7 7 7 6 6 6 6 6 7 7 7 5 4 6 7 7 8 8 7 5 7 8 8 8 7 6 7 8 8 9
7 8 7 6 7 8 9 8 6 6 7 5 6 7 9 10 9 8 5 4 3 2 5 6 5 6 7 8 8 8 7 4 6 6 5 5 5 5 7 8 8 8
9 9 8 6 7 8 8 7 6 5 5 4 6 6 6 7 6 8 7 5 6 6 5 4 7 9 11 10 9 8 3 5 5 4 3 5 7 8 7 7 7 5
8 10 8 7 7 9 8 8 9 6 4 3 7 4 5 6 6 7 5 3 3 4 5 3 2 5 8 9 8 3 4 6 6 8 8 9 9 9 9 9 8 7
4 8 9 9 9 10 9 8 8 7 6 5 10 7 5 4 6 7 6 5 3 3 1 2 3 5 6 5 2 1 4 7 7 9 9 9 9 10 9 10 12 14
5 6 7 8 10 8 10 9 8 9 8 6 8 9 8 7 5 7 4 4 3 2 4 2 3 5 6 3 4 5 7 7 9 9 9 8 8 10 9 10 11 12
3 5 7 8 7 6 5 8 8 9 9 9 7 8 9 6 3 4 5 2 4 4 5 4 3 5 5 4 5 7 8 10 7 10 9 8 7 8 11 10 11 11

ECMWFNIL_sfc_gust_045.txt.gz
Wind_Gust
12 12 14 13 12 10 11 11 10 11 10 10 11 10 10 10 9 9 9 8 9 11 11 10 9 9 9 10 10 10 11 10 10 9 9 10 10 10 11 10 10 11
13 11 11 11 10 9 8 9 10 11 10 10 10 11 9 10 9 9 9 10 10 10 11 11 10 10 10 10 10 10 11 10 10 10 9 10 9 9 10 10 10 10
12 12 13 14 15 14 12 9 10 10 10 11 11 10 11 9 10 9 9 9 10 9 9 9 10 9 10 11 10 10 10 10 10 10 9 10 9 10 9 9 10 10
13 14 14 14 14 15 13 12 8 9 10 11 11 11 11 11 11 11 10 9 10 10 9 8 9 9 9 10 10 11 10 10 9 8 9 9 9 9 9 9 9 9
14 13 10 11 12 12 13 13 12 10 10 10 9 8 10 11 11 12 10 10 9 10 9 10 9 9 9 9 8 10 10 11 9 8 8 9 8 7 7 7 8 8
11 12 13 13 13 14 13 12 12 10 10 10 10 9 8 7 10 11 11 10 9 10 10 9 10 9 9 8 7 7 7 8 9 8 8 8 8 7 7 6 7 8
13 11 12 13 13 12 12 12 12 13 12 12 12 11 11 10 11 11 12 11 11 10 11 10 9 9 8 8 8 7 7 7 7 7 8 8 8 8 8 7 7 8
12 10 11 13 14 13 11 12 14 14 15 15 13 12 12 12 11 11 12 14 13 12 10 10 9 9 9 8 8 8 7 6 6 7 8 7 8 8 9 8 7 8
12 12 12 13 13 13 13 13 13 13 14 15 15 14 13 12 11 11 13 13 13 12 10 9 8 8 7 7 8 7 6 6 7 7 8 9 9 9 10 9 9 9
13 13 14 14 13 13 14 13 14 14 14 13 14 14 15 12 13 14 15 14 12 12 10 10 8 7 7 7 7 7 6 7 7 8 10 9 11 12 10 9 10 10
12 12 11 12 12 13 14 14 13 13 11 11 12 12 11 12 11 12 13 12 11 10 10 9 9 8 8 9 8 7 9 9 9 9 11 12 11 12 8 13 13 13
12 14 15 10 12 12 14 14 13 13 12 10 11 12 10 8 8 10 10 10 11 12 11 10 8 8 12 13 14 11 10 9 8 9 10 12 13 13 14 14 15 15
12 14 16 14 14 12 12 13 14 13 14 14 13 13 12 11 8 9 9 10 9 10 10 9 9 10 12 12 13 13 12 10 9 10 11 12 13 14 14 15 15 16
12 13 14 14 13 12 12 12 13 12 12 12 12 12 11 11 11 10 10 10 11 10 10 9 9 10 10 12 12 12 11 11 10 10 10 11 11 13 13 14 14 14
13 13 14 15 15 15 14 13 12 11 11 12 11 10 8 9 9 9 8 7 9 9 9 9 8 9 10 10 11 12 11 11 11 11 11 12 12 12 12 13 13 13
13 13 13 12 12 13 12 11 12 12 12 12 11 10 9 9 9 8 7 7 8 8 7 6 6 6 5 5 6 11 12 12 11 11 11 11 12 12 12 10 11 13
11 11 10 11 10 10 9 11 12 12 12 11 10 9 9 9 9 9 9 9 8 8 8 7 6 8 7 4 2 2 8 11 12 13 13 14 14 14 14 10 12 15
11 11 10 9 8 7 8 9 10 11 11 10 11 11 10 10 11 9 9 8 8 9 9 9 9 7 6 5 3 2 3 9 10 11 11 12 13 13 13 9 10 12
9 10 9 9 8 10 10 10 11 11 12 12 12 10 10 11 10 10 10 9 9 10 9 9 8 6 5 5 3 2 4 6 9 10 10 10 10 11 11 10 10 10
9 10 10 9 9 10 9 10 10 10 9 9 10 10 11 11 9 10 10 10 9 8 9 9 9 3 4 4 5 5 4 4 6 7 8 9 10 11 11 11 10 10
11 11 12 11 11 10 10 11 10 9 10 9 8 8 9 9 9 9 9 8 9 8 8 8 8 1 3 4 6 6 6 3 9 7 7 7 9 10 11 11 10 9
11 12 12 11 11 11 11 11 9 9 10 8 9 9 9 9 9 9 9 9 8 8 9 10 9 3 5 7 8 7 6 10 10 9 9 8 8 9 9 9 9 8
12 12 11 10 9 10 10 9 9 9 9 8 11 10 10 9 9 8 8 8 9 8 8 9 8 7 7 7 7 6 6 10 9 10 10 10 10 9 10 11 11 10
12 13 12 10 8 9 9 8 7 8 9 9 13 13 12 10 10 10 9 8 8 9 9 7 7 7 7 7 4 3 4 10 9 10 10 10 10 10 10 12 15 14
10 12 12 12 12 10 10 10 9 8 7 6 7 9 10 9 9 10 10 9 9 8 5 7 7 6 6 7 4 3 6 9 9 10 10 10 10 12 11 12 15 15
7 9 11 12 13 12 11 11 10 9 8 8 7 8 9 8 7 8 9 9 8 8 7 7 7 7 9 7 5 2 5 8 8 9 10 11 10 12 13 12 14 16

ECMWFNIL_sfc_gust_048.txt.gz
Wind_Gust
15 14 14 14 14 16 16 15 14 15 16 16 16 15 15 13 12 12 12 12 13 13 13 13 13 12 12 12 11 13 14 12 13 12 13 13 13 12 13 13 12 12
13 11 12 12 13 13 14 13 12 13 15 14 16 16 15 14 12 12 12 13 13 13 13 13 13 13 12 13 11 11 13 12 12 12 12 12 11 12 12 11 11 11
13 12 12 13 14 15 14 13 13 12 13 13 15 16 16 14 13 12 12 12 13 13 12 12 12 13 13 13 11 12 13 11 11 11 12 13 12 13 11 11 12 11
12 13 13 13 14 16 16 16 14 13 12 13 15 17 17 15 14 14 13 13 14 13 12 11 11 11 13 13 12 14 12 11 11 10 11 12 12 13 12 11 11 11
13 13 11 12 14 15 15 17 17 17 16 14 16 17 18 16 16 15 14 14 13 14 13 12 11 12 11 11 11 12 11 12 10 9 11 11 10 10 10 10 11 11
14 15 14 14 14 16 17 18 18 18 18 16 15 16 17 17 16 16 15 15 14 15 14 14 13 12 11 11 9 10 9 11 11 9 11 11 10 9 10 9 10 10
15 15 14 14 14 15 16 17 17 18 18 16 15 14 15 16 16 16 17 16 16 16 16 15 14 12 11 10 10 10 10 9 9 9 9 11 10 10 9 8 9 10
14 14 16 14 15 16 16 18 17 18 17 17 16 15 16 16 16 15 14 16 16 16 15 15 14 14 12 10 10 10 10 8 7 9 8 9 7 8 10 8 7 7
16 15 16 16 17 18 18 19 18 16 17 17 17 16 17 17 17 16 17 16 16 16 16 14 13 13 12 11 11 10 9 9 7 7 7 7 8 8 9 10 9 8
17 16 16 17 17 18 18 18 17 17 17 18 18 17 18 16 17 18 18 16 16 17 17 16 15 13 12 11 11 11 9 9 9 9 9 9 9 9 9 9 9 9
17 16 17 17 17 17 18 18 18 18 17 18 17 17 17 17 17 17 17 17 16 16 16 16 16 15 14 13 13 11 10 11 11 11 11 11 11 10 6 11 11 11
17 14 15 18 19 17 18 18 19 18 18 17 17 17 16 15 17 17 16 17 16 16 15 14 13 12 13 13 13 13 12 11 12 12 13 13 12 12 12 12 12 13
15 15 14 14 15 15 16 18 18 18 19 19 18 18 17 17 16 15 15 16 17 16 16 16 14 11 11 13 14 14 13 13 12 13 13 13 13 14 13 12 13 13
14 13 15 14 13 14 15 15 17 18 18 18 18 17 17 17 17 15 15 16 15 15 15 14 15 15 14 14 14 13 12 12 12 12 13 13 12 12 11 12 12 13
13 13 13 13 13 15 17 17 17 17 17 16 14 14 13 14 14 14 15 15 15 14 15 14 13 13 12 11 13 13 12 12 11 11 12 13 13 12 13 11 12 14
12 13 15 14 13 14 15 16 16 16 16 16 14 12 12 12 13 13 14 15 15 15 14 13 12 12 11 9 8 11 10 9 9 10 11 10 10 10 13 12 13 11
12 11 11 13 13 14 12 14 16 15 13 15 15 14 14 15 17 14 14 13 14 13 13 13 13 12 7 5 5 4 8 8 8 8 7 8 8 8 9 12 12 12
11 13 12 11 11 12 12 12 12 13 14 14 15 14 13 13 12 11 11 10 10 12 12 13 13 7 5 6 5 3 5 10 7 8 6 7 8 8 9 9 8 7
11 12 12 11 10 9 10 11 11 13 12 12 12 13 11 11 12 12 13 13 13 14 15 16 14 6 4 7 6 4 3 7 7 7 7 7 9 9 9 8 8 8
12 11 12 12 12 13 13 14 13 13 12 12 12 13 13 13 13 13 14 14 15 15 15 16 14 7 4 6 6 4 4 8 9 8 8 9 8 9 9 9 8 9
12 13 12 12 13 13 13 14 14 14 14 15 15 16 16 17 16 15 15 14 14 13 14 15 12 6 3 5 5 6 7 8 10 8 8 8 8 7 8 8 9 8
15 15 14 14 15 15 15 16 15 14 14 14 15 15 14 14 14 15 15 14 13 13 14 16 14 5 5 6 7 8 10 12 10 9 10 10 10 9 9 9 10 9
14 15 15 15 15 14 14 14 14 14 14 14 14 15 15 15 14 14 14 14 13 12 13 15 15 9 6 7 7 8 10 9 8 9 10 11 11 9 11 13 14 14
12 13 12 13 14 14 14 13 13 13 14 14 15 15 15 15 15 14 13 13 13 12 12 14 15 10 6 5 4 5 10 10 7 10 9 10 11 10 12 15 17 17
11 11 13 14 14 13 12 14 13 13 12 13 15 14 13 14 13 14 13 12 12 12 3 8 15 11 6 5 2 3 10 11 7 9 9 9 10 13 12 15 17 16
12 12 13 15 16 16 16 17 15 14 14 14 14 15 16 14 14 13 14 13 13 13 12 10 13 14 11 3 2 2 6 14 8 6 9 9 8 11 13 14 16 17